Quakertown, PA

3:13 AM EST on November 23, 2017 (GMT -0500)
Quakertown

Weather History for KUKT - May, 2013

Change the Weather History Date:

Saturday, May 25, 2013

  Actual Average (KABE) Record (KABE)
Temperature  
Mean Temperature 52 °F -  
Max Temperature 60 °F 72 °F 90 °F (1991)
Min Temperature 44 °F 53 °F 33 °F (1956)
Degree Days  
Heating Degree Days 13    
Growing Degree Days 2 (Base 50)    
Moisture  
Dew Point 35 °F    
Average Humidity 54    
Maximum Humidity 81    
Minimum Humidity 34    
Precipitation  
Precipitation 0.00 in - - ()
Sea Level Pressure  
Sea Level Pressure 30.02 in    
Wind  
Wind Speed 10 mph (WNW)    
Max Wind Speed 20 mph    
Max Gust Speed 30 mph    
Visibility 10 miles    
Events      
Averages and records for this station are not official NWS values.
T = Trace of Precipitation, MM = Missing Value Source: NWS Daily Summary

Daily Weather History Graph

Daily Weather History Graph

Search for Another Location

Airport or City:

Trip Planner

Search our weather history database for the weather conditions in past years. The results will help you decide how hot, cold, wet, or windy it might be!

Date:

Astronomy

May. 25, 2013 Rise Set
Actual Time 5:37 AM EDT 8:20 PM EDT
Civil Twilight 5:05 AM EDT 8:52 PM EDT
Nautical Twilight 4:25 AM EDT 9:32 PM EDT
Astronomical Twilight 3:39 AM EDT 10:17 PM EDT
Moon 9:05 PM EDT (5/25) 6:01 AM EDT (5/25)
Length of Visible Light 15h 47m
Length of Day
14h 43m
Full, 100% of the Moon is Illuminated
May 25
Full
May 31
Last Quarter
Jun 8
New
Jun 16
First Quarter
Jun 23
Full

Hourly Weather History & Observations

Time (EDT) Temp. Windchill Dew Point Humidity Pressure Visibility Wind Dir Wind Speed Gust Speed Precip Events Conditions
12:15 AM 46.4 °F 42.4 °F 37.4 °F 71% 30.04 in 10.0 mi NW 8.1 mph 21.9 mph N/A   Overcast
12:35 AM 46.4 °F 41.9 °F 37.4 °F 71% 30.03 in 10.0 mi WNW 9.2 mph 19.6 mph N/A   Overcast
12:55 AM 46.4 °F 41.5 °F 37.4 °F 71% 30.02 in 10.0 mi WNW 10.4 mph 17.3 mph N/A   Overcast
1:15 AM 46.4 °F 41.5 °F 37.4 °F 71% 30.02 in 10.0 mi WNW 10.4 mph 20.7 mph N/A   Overcast
1:35 AM 46.4 °F 41.5 °F 37.4 °F 71% 30.01 in 10.0 mi WNW 10.4 mph 23.0 mph N/A   Mostly Cloudy
1:55 AM 46.4 °F 41.9 °F 37.4 °F 71% 30.01 in 10.0 mi NW 9.2 mph 23.0 mph N/A   Overcast
2:15 AM 44.6 °F 38.8 °F 37.4 °F 76% 30.00 in 10.0 mi WNW 11.5 mph 23.0 mph N/A   Mostly Cloudy
2:35 AM 46.4 °F 41.5 °F 37.4 °F 71% 29.99 in 10.0 mi WNW 10.4 mph 16.1 mph N/A   Mostly Cloudy
2:55 AM 46.4 °F 40.1 °F 37.4 °F 71% 30.00 in 10.0 mi WNW 15.0 mph 21.9 mph N/A   Overcast
3:15 AM 46.4 °F 41.5 °F 37.4 °F 71% 30.00 in 10.0 mi WNW 10.4 mph 25.3 mph N/A   Overcast
3:35 AM 44.6 °F 39.2 °F 39.2 °F 81% 29.99 in 9.0 mi WNW 10.4 mph - N/A   Overcast
3:55 AM 46.4 °F 44.3 °F 37.4 °F 71% 29.99 in 10.0 mi West 4.6 mph 17.3 mph N/A   Overcast
4:15 AM 46.4 °F 42.9 °F 37.4 °F 71% 30.00 in 10.0 mi WNW 6.9 mph 17.3 mph N/A   Mostly Cloudy
4:35 AM 46.4 °F 42.9 °F 37.4 °F 71% 30.00 in 10.0 mi WNW 6.9 mph - N/A   Mostly Cloudy
4:55 AM 46.4 °F 41.5 °F 37.4 °F 71% 29.99 in 10.0 mi WNW 10.4 mph 17.3 mph N/A   Mostly Cloudy
5:15 AM 46.4 °F 41.9 °F 37.4 °F 71% 29.99 in 10.0 mi WNW 9.2 mph - N/A   Overcast
5:35 AM 46.4 °F 43.5 °F 37.4 °F 71% 30.00 in 10.0 mi West 5.8 mph - N/A   Overcast
5:55 AM 46.4 °F 42.9 °F 35.6 °F 66% 30.00 in 10.0 mi West 6.9 mph - N/A   Overcast
6:15 AM 46.4 °F 43.5 °F 35.6 °F 66% 30.00 in 10.0 mi WSW 5.8 mph - N/A   Overcast
6:35 AM 46.4 °F 43.5 °F 35.6 °F 66% 30.01 in 10.0 mi West 5.8 mph - N/A   Overcast
6:55 AM 46.4 °F 41.5 °F 35.6 °F 66% 30.01 in 10.0 mi WNW 10.4 mph 16.1 mph N/A   Overcast
7:15 AM 46.4 °F 41.9 °F 35.6 °F 66% 30.01 in 10.0 mi West 9.2 mph 16.1 mph N/A   Scattered Clouds
7:35 AM 46.4 °F 41.1 °F 35.6 °F 66% 30.01 in 10.0 mi West 11.5 mph 18.4 mph N/A   Clear
7:55 AM 48.2 °F - 35.6 °F 62% 30.01 in 10.0 mi WNW 9.2 mph 16.1 mph N/A   Clear
8:15 AM 48.2 °F - 35.6 °F 62% 30.02 in 10.0 mi WNW 11.5 mph 20.7 mph N/A   Clear
8:35 AM 50.0 °F - 35.6 °F 58% 30.02 in 10.0 mi WNW 10.4 mph 20.7 mph N/A   Clear
8:55 AM 50.0 °F - 35.6 °F 58% 30.03 in 10.0 mi West 17.3 mph 26.5 mph N/A   Clear
9:15 AM 50.0 °F - 35.6 °F 58% 30.02 in 10.0 mi West 15.0 mph 25.3 mph N/A   Clear
9:35 AM 51.8 °F - 35.6 °F 54% 30.02 in 10.0 mi WNW 8.1 mph 24.2 mph N/A   Clear
9:55 AM 53.6 °F - 37.4 °F 54% 30.02 in 10.0 mi West 11.5 mph 20.7 mph N/A   Partly Cloudy
10:15 AM 53.6 °F - 35.6 °F 51% 30.01 in 10.0 mi West 12.7 mph 24.2 mph N/A   Mostly Cloudy
10:35 AM 53.6 °F - 35.6 °F 51% 30.02 in 10.0 mi West 15.0 mph 23.0 mph N/A   Mostly Cloudy
10:55 AM 55.4 °F - 35.6 °F 47% 30.03 in 10.0 mi West 9.2 mph 19.6 mph N/A   Mostly Cloudy
11:15 AM 55.4 °F - 35.6 °F 47% 30.02 in 10.0 mi NW 12.7 mph 26.5 mph N/A   Mostly Cloudy
11:35 AM 55.4 °F - 35.6 °F 47% 30.03 in 10.0 mi West 19.6 mph 29.9 mph N/A   Mostly Cloudy
11:55 AM 57.2 °F - 37.4 °F 48% 30.02 in 10.0 mi WNW 12.7 mph 24.2 mph N/A   Mostly Cloudy
12:15 PM 57.2 °F - 35.6 °F 44% 30.02 in 10.0 mi NNW 15.0 mph 23.0 mph N/A   Mostly Cloudy
12:35 PM 57.2 °F - 35.6 °F 44% 30.02 in 10.0 mi West 12.7 mph 23.0 mph N/A   Overcast
12:55 PM 57.2 °F - 35.6 °F 44% 30.02 in 10.0 mi WNW 9.2 mph 23.0 mph N/A   Overcast
1:15 PM 57.2 °F - 35.6 °F 44% 30.02 in 10.0 mi WSW 16.1 mph 24.2 mph N/A   Overcast
1:35 PM 57.2 °F - 35.6 °F 44% 30.02 in 10.0 mi West 11.5 mph 24.2 mph N/A   Overcast
1:55 PM 57.2 °F - 35.6 °F 44% 30.02 in 10.0 mi West 13.8 mph 20.7 mph N/A   Overcast
2:15 PM 57.2 °F - 35.6 °F 44% 30.02 in 10.0 mi West 13.8 mph 21.9 mph N/A   Overcast
2:35 PM 57.2 °F - 35.6 °F 44% 30.02 in 10.0 mi West 16.1 mph 21.9 mph N/A   Overcast
2:55 PM 57.2 °F - 35.6 °F 44% 30.02 in 10.0 mi WNW 18.4 mph 25.3 mph N/A   Mostly Cloudy
3:15 PM 59.0 °F - 35.6 °F 42% 30.01 in 10.0 mi WNW 16.1 mph 27.6 mph N/A   Scattered Clouds
3:35 PM 57.2 °F - 35.6 °F 44% 30.01 in 10.0 mi West 13.8 mph 19.6 mph N/A   Partly Cloudy
3:55 PM 59.0 °F - 33.8 °F 39% 30.01 in 10.0 mi West 16.1 mph 23.0 mph N/A   Mostly Cloudy
4:15 PM 60.8 °F - 32.0 °F 34% 30.00 in 10.0 mi WNW 11.5 mph 23.0 mph N/A   Mostly Cloudy
4:35 PM 59.0 °F - 32.0 °F 36% 30.00 in 10.0 mi WNW 19.6 mph 25.3 mph N/A   Mostly Cloudy
4:55 PM 59.0 °F - 33.8 °F 39% 30.01 in 10.0 mi West 11.5 mph 23.0 mph N/A   Mostly Cloudy
5:15 PM 59.0 °F - 32.0 °F 36% 30.01 in 10.0 mi West 15.0 mph 29.9 mph N/A   Mostly Cloudy
5:35 PM 59.0 °F - 32.0 °F 36% 30.01 in 10.0 mi West 12.7 mph 18.4 mph N/A   Scattered Clouds
5:55 PM 57.2 °F - 32.0 °F 38% 30.01 in 10.0 mi WNW 11.5 mph 21.9 mph N/A   Scattered Clouds
6:15 PM 57.2 °F - 32.0 °F 38% 30.02 in 10.0 mi West 13.8 mph 26.5 mph N/A   Clear
6:35 PM 57.2 °F - 32.0 °F 38% 30.03 in 10.0 mi WNW 11.5 mph 19.6 mph N/A   Clear
6:55 PM 57.2 °F - 32.0 °F 38% 30.03 in 10.0 mi NNW 12.7 mph 20.7 mph N/A   Partly Cloudy
7:15 PM 57.2 °F - 32.0 °F 38% 30.04 in 10.0 mi WNW 8.1 mph - N/A   Clear
7:35 PM 57.2 °F - 32.0 °F 38% 30.04 in 10.0 mi WNW 6.9 mph - N/A   Partly Cloudy
7:55 PM 55.4 °F - 32.0 °F 41% 30.05 in 10.0 mi WNW 8.1 mph - N/A   Scattered Clouds
8:15 PM 55.4 °F - 32.0 °F 41% 30.05 in 10.0 mi West 8.1 mph 17.3 mph N/A   Mostly Cloudy
8:35 PM 53.6 °F - 32.0 °F 44% 30.06 in 10.0 mi WNW 8.1 mph 16.1 mph N/A   Mostly Cloudy
8:55 PM 53.6 °F - 32.0 °F 44% 30.07 in 10.0 mi WNW 9.2 mph 19.6 mph N/A   Partly Cloudy
9:15 PM 53.6 °F - 32.0 °F 44% 30.07 in 10.0 mi WNW 6.9 mph - N/A   Clear
9:35 PM 51.8 °F - 32.0 °F 47% 30.08 in 10.0 mi WNW 6.9 mph - N/A   Clear
9:55 PM 51.8 °F - 32.0 °F 47% 30.08 in 10.0 mi West 5.8 mph - N/A   Clear
10:15 PM 50.0 °F - 32.0 °F 50% 30.08 in 10.0 mi West 4.6 mph - N/A   Clear
10:35 PM 50.0 °F - 32.0 °F 50% 30.08 in 10.0 mi WSW 3.5 mph - N/A   Clear
10:55 PM 50.0 °F - 32.0 °F 50% 30.07 in 10.0 mi WSW 3.5 mph - N/A   Clear
11:15 PM 50.0 °F - 32.0 °F 50% 30.07 in 10.0 mi WSW 5.8 mph - N/A   Clear
11:35 PM 50.0 °F - 32.0 °F 50% 30.07 in 10.0 mi WSW 8.1 mph - N/A   Clear
11:55 PM 50.0 °F - 32.0 °F 50% 30.06 in 10.0 mi WSW 6.9 mph - N/A   Clear